Time,TemperatureF,DewpointF,PressureIn,WindDirection,WindDirectionDegrees,WindSpeedMPH,WindSpeedGustMPH,Humidity,HourlyPrecipIn,Conditions,Clouds,dailyrainin,SolarRadiationWatts/m^2,SoftwareType,DateUTC
2013-08-11 00:02:00,68.0,66.0,-100.00,ENE,75,7.0,11.0,92,0.00,,,0.52,0.000000,,2013-08-11 05:02:00,
2013-08-11 00:11:00,69.0,66.0,-100.00,ESE,102,4.0,10.0,90,0.00,,,0.52,0.000000,,2013-08-11 05:11:00,
2013-08-11 00:38:00,69.0,66.0,-100.00,ESE,102,4.0,10.0,90,0.00,,,0.52,0.000000,,2013-08-11 05:38:00,
2013-08-11 00:49:00,69.0,66.0,-100.00,ESE,102,4.0,10.0,90,0.00,,,0.52,0.000000,,2013-08-11 05:49:00,
2013-08-11 00:56:00,69.0,66.0,-100.00,ESE,102,4.0,10.0,90,0.00,,,0.52,0.000000,,2013-08-11 05:56:00,
2013-08-11 01:03:00,69.0,66.0,-100.00,ESE,102,4.0,10.0,90,0.00,,,0.52,0.000000,,2013-08-11 06:03:00,
2013-08-11 01:11:00,70.0,65.0,-100.00,SE,131,5.0,11.0,84,0.00,,,0.52,0.000000,,2013-08-11 06:11:00,
2013-08-11 01:38:00,70.0,65.0,-100.00,SE,131,5.0,11.0,84,0.00,,,0.52,0.000000,,2013-08-11 06:38:00,
2013-08-11 01:49:00,70.0,65.0,-100.00,SE,131,5.0,11.0,84,0.00,,,0.52,0.000000,,2013-08-11 06:49:00,
2013-08-11 01:57:00,70.0,65.0,-100.00,SE,131,5.0,11.0,84,0.00,,,0.52,0.000000,,2013-08-11 06:57:00,
2013-08-11 02:06:00,70.0,65.0,-100.00,SE,131,5.0,11.0,84,0.00,,,0.52,0.000000,,2013-08-11 07:06:00,
2013-08-11 02:37:00,67.0,64.0,-100.00,East,88,2.0,8.0,90,0.00,,,0.52,0.000000,,2013-08-11 07:37:00,
2013-08-11 02:47:00,67.0,64.0,-100.00,East,88,2.0,8.0,90,0.00,,,0.52,0.000000,,2013-08-11 07:47:00,
2013-08-11 02:56:00,67.0,64.0,-100.00,East,88,2.0,8.0,90,0.00,,,0.52,0.000000,,2013-08-11 07:56:00,
2013-08-11 03:07:00,67.0,64.0,-100.00,East,88,2.0,8.0,90,0.00,,,0.52,0.000000,,2013-08-11 08:07:00,
2013-08-11 03:11:00,67.0,65.0,-100.00,NE,48,6.0,10.0,92,0.00,,,0.52,0.000000,,2013-08-11 08:11:00,
2013-08-11 03:37:00,67.0,65.0,-100.00,NE,48,6.0,10.0,92,0.00,,,0.52,0.000000,,2013-08-11 08:37:00,
2013-08-11 03:49:00,67.0,65.0,-100.00,NE,48,6.0,10.0,92,0.00,,,0.52,0.000000,,2013-08-11 08:49:00,
2013-08-11 03:59:00,67.0,65.0,-100.00,NE,48,6.0,10.0,92,0.00,,,0.52,0.000000,,2013-08-11 08:59:00,
2013-08-11 04:05:00,67.0,65.0,-100.00,NE,48,6.0,10.0,92,0.00,,,0.52,0.000000,,2013-08-11 09:05:00,
2013-08-11 04:11:00,65.0,64.0,-100.00,ENE,68,5.0,8.0,95,0.00,,,0.52,0.000000,,2013-08-11 09:11:00,
2013-08-11 04:44:00,65.0,64.0,-100.00,ENE,68,5.0,8.0,95,0.00,,,0.52,0.000000,,2013-08-11 09:44:00,
2013-08-11 05:01:00,65.0,64.0,-100.00,ENE,68,5.0,8.0,95,0.00,,,0.52,0.000000,,2013-08-11 10:01:00,
2013-08-11 05:11:00,66.0,63.0,-100.00,East,79,6.0,10.0,91,0.00,,,0.52,0.000000,,2013-08-11 10:11:00,
2013-08-11 05:38:00,66.0,63.0,-100.00,East,79,6.0,10.0,91,0.00,,,0.52,0.000000,,2013-08-11 10:38:00,
2013-08-11 05:47:00,66.0,63.0,-100.00,East,79,6.0,10.0,91,0.00,,,0.52,0.000000,,2013-08-11 10:47:00,
2013-08-11 05:57:00,66.0,63.0,-100.00,East,79,6.0,10.0,91,0.00,,,0.52,0.000000,,2013-08-11 10:57:00,
2013-08-11 06:06:00,66.0,63.0,-100.00,East,79,6.0,10.0,91,0.00,,,0.52,0.000000,,2013-08-11 11:06:00,
2013-08-11 06:11:00,66.0,63.0,-100.00,East,81,3.0,10.0,91,0.00,,,-99.99,0.000000,,2013-08-11 11:11:00,
2013-08-11 06:39:00,66.0,63.0,-100.00,East,81,3.0,10.0,91,0.00,,,-99.99,0.000000,,2013-08-11 11:39:00,
2013-08-11 06:49:00,66.0,63.0,-100.00,East,81,3.0,10.0,91,0.00,,,-99.99,0.000000,,2013-08-11 11:49:00,
2013-08-11 06:59:00,66.0,63.0,-100.00,East,81,3.0,10.0,91,0.00,,,-99.99,0.000000,,2013-08-11 11:59:00,
2013-08-11 07:05:00,66.0,63.0,-100.00,East,81,3.0,10.0,91,0.00,,,-99.99,0.000000,,2013-08-11 12:05:00,
2013-08-11 07:37:00,66.0,63.0,-100.00,NW,316,3.0,9.0,91,0.00,,,-99.99,6.000000,,2013-08-11 12:37:00,
2013-08-11 07:47:00,66.0,63.0,-100.00,NW,316,3.0,9.0,91,0.00,,,-99.99,6.000000,,2013-08-11 12:47:00,
2013-08-11 07:56:00,66.0,63.0,-100.00,NW,316,3.0,9.0,91,0.00,,,-99.99,6.000000,,2013-08-11 12:56:00,
2013-08-11 08:05:00,66.0,63.0,-100.00,NW,316,3.0,9.0,91,0.00,,,-99.99,6.000000,,2013-08-11 13:05:00,
2013-08-11 08:40:00,66.0,64.0,-100.00,WSW,244,3.0,7.0,92,0.00,,,0.52,49.000000,,2013-08-11 13:40:00,
2013-08-11 08:48:00,66.0,64.0,-100.00,WSW,244,3.0,7.0,92,0.00,,,0.52,49.000000,,2013-08-11 13:48:00,
2013-08-11 08:58:00,66.0,64.0,-100.00,WSW,244,3.0,7.0,92,0.00,,,0.52,49.000000,,2013-08-11 13:58:00,
2013-08-11 09:11:00,71.0,67.0,-100.00,South,190,4.0,9.0,87,0.00,,,0.52,182.000000,,2013-08-11 14:11:00,
2013-08-11 09:36:00,71.0,67.0,-100.00,South,190,4.0,9.0,87,0.00,,,0.52,182.000000,,2013-08-11 14:36:00,
2013-08-11 09:49:00,71.0,67.0,-100.00,South,190,4.0,9.0,87,0.00,,,0.52,182.000000,,2013-08-11 14:49:00,
2013-08-11 09:57:00,71.0,67.0,-100.00,South,190,4.0,9.0,87,0.00,,,0.52,182.000000,,2013-08-11 14:57:00,
2013-08-11 10:11:00,73.0,69.0,-100.00,SSE,153,2.0,10.0,86,0.00,,,0.52,232.000000,,2013-08-11 15:11:00,
2013-08-11 10:41:00,73.0,69.0,-100.00,SSE,153,2.0,10.0,86,0.00,,,0.52,232.000000,,2013-08-11 15:41:00,
2013-08-11 10:49:00,73.0,69.0,-100.00,SSE,153,2.0,10.0,86,0.00,,,0.52,232.000000,,2013-08-11 15:49:00,
2013-08-11 11:06:00,73.0,69.0,-100.00,SSE,153,2.0,10.0,86,0.00,,,0.52,232.000000,,2013-08-11 16:06:00,
2013-08-11 11:11:00,78.0,69.0,-100.00,SW,222,5.0,9.0,75,0.00,,,0.52,328.000000,,2013-08-11 16:11:00,
2013-08-11 11:41:00,78.0,69.0,-100.00,SW,222,5.0,9.0,75,0.00,,,0.52,328.000000,,2013-08-11 16:41:00,
2013-08-11 11:47:00,78.0,69.0,-100.00,SW,222,5.0,9.0,75,0.00,,,0.52,328.000000,,2013-08-11 16:47:00,
2013-08-11 11:57:00,78.0,69.0,-100.00,SW,222,5.0,9.0,75,0.00,,,0.52,328.000000,,2013-08-11 16:57:00,
2013-08-11 12:11:00,79.0,70.0,-100.00,WSW,243,7.0,11.0,73,0.00,,,0.52,456.000000,,2013-08-11 17:11:00,
2013-08-11 12:38:00,79.0,70.0,-100.00,WSW,243,7.0,11.0,73,0.00,,,0.52,456.000000,,2013-08-11 17:38:00,
2013-08-11 12:47:00,79.0,70.0,-100.00,WSW,243,7.0,11.0,73,0.00,,,0.52,456.000000,,2013-08-11 17:47:00,
2013-08-11 12:57:00,79.0,70.0,-100.00,WSW,243,7.0,11.0,73,0.00,,,0.52,456.000000,,2013-08-11 17:57:00,
2013-08-11 13:05:00,79.0,70.0,-100.00,WSW,243,7.0,11.0,73,0.00,,,0.52,456.000000,,2013-08-11 18:05:00,
2013-08-11 13:40:00,82.0,71.0,-100.00,WSW,249,7.0,11.0,70,0.00,,,0.52,402.000000,,2013-08-11 18:40:00,
2013-08-11 13:49:00,82.0,71.0,-100.00,WSW,249,7.0,11.0,70,0.00,,,0.52,402.000000,,2013-08-11 18:49:00,
2013-08-11 13:56:00,82.0,71.0,-100.00,WSW,249,7.0,11.0,70,0.00,,,0.52,402.000000,,2013-08-11 18:56:00,
2013-08-11 14:05:00,82.0,71.0,-100.00,WSW,249,7.0,11.0,70,0.00,,,0.52,402.000000,,2013-08-11 19:05:00,
2013-08-11 14:11:00,81.0,71.0,-100.00,West,275,6.0,13.0,72,0.00,,,0.52,426.000000,,2013-08-11 19:11:00,
2013-08-11 14:35:00,81.0,71.0,-100.00,West,275,6.0,13.0,72,0.00,,,0.52,426.000000,,2013-08-11 19:35:00,
2013-08-11 14:51:00,81.0,71.0,-100.00,West,275,6.0,13.0,72,0.00,,,0.52,426.000000,,2013-08-11 19:51:00,
2013-08-11 14:59:00,81.0,71.0,-100.00,West,275,6.0,13.0,72,0.00,,,0.52,426.000000,,2013-08-11 19:59:00,
2013-08-11 15:11:00,83.0,71.0,-100.00,West,265,5.0,9.0,67,0.00,,,0.52,443.000000,,2013-08-11 20:11:00,
2013-08-11 15:40:00,83.0,71.0,-100.00,West,265,5.0,9.0,67,0.00,,,0.52,443.000000,,2013-08-11 20:40:00,
2013-08-11 15:50:00,83.0,71.0,-100.00,West,265,5.0,9.0,67,0.00,,,0.52,443.000000,,2013-08-11 20:50:00,
2013-08-11 15:58:00,83.0,71.0,-100.00,West,265,5.0,9.0,67,0.00,,,0.52,443.000000,,2013-08-11 20:58:00,
2013-08-11 16:05:00,83.0,71.0,-100.00,West,265,5.0,9.0,67,0.00,,,0.52,443.000000,,2013-08-11 21:05:00,
2013-08-11 16:11:00,82.0,71.0,-100.00,West,278,3.0,7.0,70,0.00,,,0.46,295.000000,,2013-08-11 21:11:00,
2013-08-11 16:36:00,82.0,71.0,-100.00,West,278,3.0,7.0,70,0.00,,,0.46,295.000000,,2013-08-11 21:36:00,
2013-08-11 16:49:00,82.0,71.0,-100.00,West,278,3.0,7.0,70,0.00,,,0.46,295.000000,,2013-08-11 21:49:00,
2013-08-11 16:58:00,82.0,71.0,-100.00,West,278,3.0,7.0,70,0.00,,,0.46,295.000000,,2013-08-11 21:58:00,
2013-08-11 17:04:00,82.0,71.0,-100.00,West,278,3.0,7.0,70,0.00,,,0.46,295.000000,,2013-08-11 22:04:00,
2013-08-11 17:11:00,82.0,72.0,-100.00,NW,311,5.0,9.0,72,0.00,,,0.46,280.000000,,2013-08-11 22:11:00,
2013-08-11 17:36:00,82.0,72.0,-100.00,NW,311,5.0,9.0,72,0.00,,,0.46,280.000000,,2013-08-11 22:36:00,
2013-08-11 17:47:00,82.0,72.0,-100.00,NW,311,5.0,9.0,72,0.00,,,0.46,280.000000,,2013-08-11 22:47:00,
2013-08-11 17:57:00,82.0,72.0,-100.00,NW,311,5.0,9.0,72,0.00,,,0.46,280.000000,,2013-08-11 22:57:00,
2013-08-11 18:03:00,82.0,72.0,-100.00,NW,311,5.0,9.0,72,0.00,,,0.46,280.000000,,2013-08-11 23:03:00,
2013-08-11 18:11:00,80.0,71.0,-100.00,North,9,5.0,11.0,74,0.00,,,0.15,333.000000,,2013-08-11 23:11:00,
2013-08-11 18:37:00,80.0,71.0,-100.00,North,9,5.0,11.0,74,0.00,,,0.15,333.000000,,2013-08-11 23:37:00,
2013-08-11 18:57:00,80.0,71.0,-100.00,North,9,5.0,11.0,74,0.00,,,0.15,333.000000,,2013-08-11 23:57:00,
2013-08-11 19:04:00,80.0,71.0,-100.00,North,9,5.0,11.0,74,0.00,,,0.15,333.000000,,2013-08-12 00:04:00,
2013-08-11 19:11:00,79.0,70.0,-100.00,NNE,20,6.0,10.0,73,0.00,,,0.04,213.000000,,2013-08-12 00:11:00,
2013-08-11 19:38:00,79.0,70.0,-100.00,NNE,20,6.0,10.0,73,0.00,,,0.04,213.000000,,2013-08-12 00:38:00,
2013-08-11 19:52:00,79.0,70.0,-100.00,NNE,20,6.0,10.0,73,0.00,,,0.04,213.000000,,2013-08-12 00:52:00,
2013-08-11 19:58:00,79.0,70.0,-100.00,NNE,20,6.0,10.0,73,0.00,,,0.04,213.000000,,2013-08-12 00:58:00,
2013-08-11 20:05:00,79.0,70.0,-100.00,NNE,20,6.0,10.0,73,0.00,,,0.04,213.000000,,2013-08-12 01:05:00,
2013-08-11 20:11:00,76.0,69.0,-100.00,NNE,24,5.0,11.0,80,0.00,,,0.02,127.000000,,2013-08-12 01:11:00,
2013-08-11 20:40:00,76.0,69.0,-100.00,NNE,24,5.0,11.0,80,0.00,,,0.02,127.000000,,2013-08-12 01:40:00,
2013-08-11 20:48:00,76.0,69.0,-100.00,NNE,24,5.0,11.0,80,0.00,,,0.02,127.000000,,2013-08-12 01:48:00,
2013-08-11 20:55:00,76.0,69.0,-100.00,NNE,24,5.0,11.0,80,0.00,,,0.02,127.000000,,2013-08-12 01:55:00,
2013-08-11 21:11:00,72.0,68.0,-100.00,ENE,60,3.0,10.0,87,0.00,,,0.00,6.000000,,2013-08-12 02:11:00,
2013-08-11 21:37:00,72.0,68.0,-100.00,ENE,60,3.0,10.0,87,0.00,,,0.00,6.000000,,2013-08-12 02:37:00,
2013-08-11 21:49:00,72.0,68.0,-100.00,ENE,60,3.0,10.0,87,0.00,,,0.00,6.000000,,2013-08-12 02:49:00,
2013-08-11 22:11:00,70.0,68.0,-100.00,NE,35,4.0,9.0,94,0.00,,,0.00,0.000000,,2013-08-12 03:11:00,
2013-08-11 22:39:00,70.0,68.0,-100.00,NE,35,4.0,9.0,94,0.00,,,0.00,0.000000,,2013-08-12 03:39:00,
2013-08-11 22:48:00,70.0,68.0,-100.00,NE,35,4.0,9.0,94,0.00,,,0.00,0.000000,,2013-08-12 03:48:00,
2013-08-11 23:00:00,70.0,68.0,-100.00,NE,35,4.0,9.0,94,0.00,,,0.00,0.000000,,2013-08-12 04:00:00,
2013-08-11 23:02:00,70.0,68.0,-100.00,NE,35,4.0,9.0,94,0.00,,,0.00,0.000000,,2013-08-12 04:02:00,
2013-08-11 23:11:00,67.0,66.0,-100.00,ENE,58,1.0,6.0,98,0.00,,,0.00,0.000000,,2013-08-12 04:11:00,
2013-08-11 23:33:00,67.0,66.0,-100.00,ENE,58,1.0,6.0,98,0.00,,,0.00,0.000000,,2013-08-12 04:33:00,
2013-08-11 23:43:00,67.0,66.0,-100.00,ENE,58,1.0,6.0,98,0.00,,,0.00,0.000000,,2013-08-12 04:43:00,
2013-08-11 23:52:00,67.0,66.0,-100.00,ENE,58,1.0,6.0,98,0.00,,,0.00,0.000000,,2013-08-12 04:52:00,